Weather History for PAHN - February, 2014

Change the Weather History Date:

Monday, February 3, 2014

  Actual Average Record
Temperature  
Mean Temperature 24 °F -  
Max Temperature 30 °F 29 °F 46 °F (2012)
Min Temperature 19 °F 21 °F 2 °F (1993)
Degree Days  
Heating Degree Days 40    
Moisture  
Dew Point 11 °F    
Average Humidity 52    
Maximum Humidity 69    
Minimum Humidity 41    
Precipitation  
Precipitation 0.00 in - - ()
Sea Level Pressure  
Sea Level Pressure 30.68 in    
Wind  
Wind Speed 9 mph (NW)    
Max Wind Speed 13 mph    
Max Gust Speed -    
Visibility 10 miles    
Events      
Averages and records for this station are not official NWS values.
T = Trace of Precipitation, MM = Missing Value Source: NWS Daily Summary

Daily Weather History Graph

Daily Weather History Graph

Search for Another Location

Airport or City:

Trip Planner

Search our weather history database for the weather conditions in past years. The results will help you decide how hot, cold, wet, or windy it might be!

Date:

Astronomy

Feb. 03, 2014 Rise Set
Actual Time 8:06 AM AKST 4:25 PM AKST
Civil Twilight 7:21 AM AKST 5:11 PM AKST
Nautical Twilight 6:32 AM AKST 6:00 PM AKST
Astronomical Twilight 5:44 AM AKST 6:47 PM AKST
Moon 8:58 AM AKST (2/3) 10:48 PM AKST (2/3)
Length of Visible Light 9h 50m
Length of Day
8h 19m
Waxing Crescent, 21% of the Moon is Illuminated
Feb 3
Waxing Crescent
Feb 6
First Quarter
Feb 14
Full
Feb 22
Last Quarter
Feb 28
New

Hourly Weather History & Observations

Time (AKST) Temp. Windchill Dew Point Humidity Pressure Visibility Wind Dir Wind Speed Gust Speed Precip Events Conditions
12:54 AM 25.0 °F 14.8 °F 16.0 °F 69% 30.59 in 10.0 mi WNW 10.4 mph - N/A   Clear
1:54 AM 30.0 °F 20.0 °F 14.0 °F 51% 30.59 in 10.0 mi WNW 12.7 mph - N/A   Clear
2:54 AM 30.0 °F 21.1 °F 12.9 °F 49% 30.59 in 10.0 mi NNW 10.4 mph - N/A   Clear
3:54 AM 30.0 °F 20.5 °F 12.0 °F 47% 30.60 in 10.0 mi NNW 11.5 mph - N/A   Clear
4:54 AM 28.9 °F 19.2 °F 12.0 °F 49% 30.60 in 10.0 mi NW 11.5 mph - N/A   Clear
5:54 AM 28.9 °F 21.1 °F 12.0 °F 49% 30.61 in 10.0 mi NNW 8.1 mph - N/A   Clear
6:54 AM 28.9 °F 21.1 °F 10.9 °F 47% 30.62 in 10.0 mi North 8.1 mph - N/A   Clear
7:54 AM 24.1 °F 19.7 °F 12.9 °F 62% 30.64 in 10.0 mi WNW 3.5 mph - N/A   Clear
8:54 AM 27.0 °F 21.6 °F 10.9 °F 51% 30.66 in 10.0 mi NW 4.6 mph - N/A   Clear
9:54 AM 28.9 °F 21.1 °F 10.9 °F 47% 30.67 in 10.0 mi NW 8.1 mph - N/A   Clear
10:54 AM 28.9 °F 19.8 °F 10.0 °F 45% 30.68 in 10.0 mi WNW 10.4 mph - N/A   Clear
11:54 AM 28.9 °F 19.8 °F 10.0 °F 45% 30.69 in 10.0 mi WNW 10.4 mph - N/A   Clear
12:54 PM 30.0 °F 22.4 °F 10.0 °F 43% 30.69 in 10.0 mi NW 8.1 mph - N/A   Clear
1:54 PM 30.9 °F 23.5 °F 10.0 °F 42% 30.69 in 10.0 mi NW 8.1 mph - N/A   Clear
2:54 PM 30.0 °F 21.7 °F 9.0 °F 41% 30.69 in 10.0 mi NW 9.2 mph - N/A   Clear
3:54 PM 28.9 °F 23.9 °F 10.0 °F 45% 30.71 in 10.0 mi North 4.6 mph - N/A   Clear
4:54 PM 27.0 °F - 10.9 °F 51% 30.72 in 10.0 mi Calm Calm - N/A   Clear
5:54 PM 27.0 °F 20.5 °F 10.9 °F 51% 30.73 in 10.0 mi NNW 5.8 mph - N/A   Clear
6:54 PM 21.9 °F 17.2 °F 12.9 °F 68% 30.74 in 10.0 mi NW 3.5 mph - N/A   Clear
7:54 PM 23.0 °F 15.8 °F 10.9 °F 60% 30.75 in 10.0 mi WNW 5.8 mph - N/A   Clear
8:54 PM 26.1 °F 17.6 °F 8.1 °F 47% 30.77 in 10.0 mi NW 8.1 mph - N/A   Clear
9:54 PM 19.9 °F 11.1 °F 10.9 °F 68% 30.78 in 10.0 mi NW 6.9 mph - N/A   Clear
10:54 PM 21.0 °F 10.6 °F 10.0 °F 63% 30.79 in 10.0 mi WNW 9.2 mph - N/A   Clear
11:54 PM 19.9 °F 7.9 °F 10.0 °F 65% 30.80 in 10.0 mi WNW 11.5 mph - N/A   Clear